User: anonymous   Login
Location: Unspecified
(0.0000°N, 0.0000°E)
Time: 12:58:33
(UTC+00:00)
Language:

COSMOS 2391 - Orbit

View from above orbital plane
View from above orbital plane
View from above satellite
View from above satellite

Ground track
Ground track

The orbit data is extracted from the following two-line orbital elements,

1 27465U 02036B   17352.18514784  .00000045  00000-0  24861-3 0  9994
2 27465  82.4821 122.8607 0025508 201.3254 158.6772 12.44881215701981
Epoch (UTC): 18 December 2017 04:26:36
Eccentricity: 0.0025508
inclination: 82.4821°
perigee height: 1466 km
apogee height: 1506 km
right ascension of ascending node: 122.8607°
argument of perigee: 201.3254°
revolutions per day: 12.44881215
mean anomaly at epoch: 158.6772°
orbit number at epoch: 70198

The dashed part of the orbit path shows where the satellite is in the earth's shadow,  

DLR